Location: Moscow
(55.7500°N, 37.5830°E)
Time: 15:06:12
(UTC+03:00)

Vanguard 1 - Pass Details

Date: 07 December 2021
Orbit: 652 x 3830 km, 34.2° (Epoch: 25 January)

Event Time Altitude Azimuth Distance (km) Brightness Sun altitude
Exits shadow 05:02:28 26° 230° (SW) 5,271 13.3 -29.5°
Maximum altitude 05:06:23 27° 214° (SW) 4,955 13.3 -29.0°
Drops below altitude 10° 05:18:59 10° 165° (SSE) 5,228 13.9 -27.2°
Sets 05:23:12 0° 154° (SSE) 5,788 14.4 -26.6°
